Home   Weather   Erie   Past weeks

Flag for USA Past Weather in Erie, Pennsylvania, USA — Yesterday and Last 2 Weeks

Now
81 °F

Sunny.


Feels Like: 82 °F
Forecast: 62 / 82 °F
Wind: 9 mph from Northwest

Location: Erie International Airport

Current Time: Aug 30, 2016 at 3:09:37 PM

Latest Report: Aug 30, 2016 at 1:51 PM


Visibility: 10 mi

Pressure: 30.13 "Hg

Humidity: 51%

Dew Point: 61 °F

Location of ErieLocation

Past Weather in Erie — Graph

°F

Erie Temperature Yesterday

Maximum temperature yesterday: 80 °F (at 4:51 PM)
Minimum temperature yesterday: 65 °F (at 10:51 PM)
Average temperature yesterday: 75 °F

High & Low Weather Summary for the Past Weeks

 TemperatureHumidityPressure
High89 °F (Aug 20, 3:51 PM)94% (Aug 25, 4:51 AM)30.31 "Hg (Aug 25, 4:51 AM)
Low57 °F (Aug 23, 5:51 AM)40% (Aug 24, 3:51 PM)29.65 "Hg (Aug 21, 12:51 AM)
Average75 °F71%30.06 "Hg
* Reported Aug 15 1:51 PM — Aug 30 1:51 PM, Erie, Weather by CustomWeather, © 2016

Note: Actual official high and low records may vary slightly from our data, if they occured in-between our weather recording intervals... More about our weather records

Advertising

Erie Weather History for the Previous 24 Hours

Scroll right to see more
 ConditionsComfort  
Time TempWeatherWind HumidityBarometerVisibility
1:51 PM
Tue, Aug 30
81 °FSunny.9 mph51%30.13 "Hg10 mi
12:51 PM80 °FSunny.7 mph52%30.14 "Hg10 mi
11:51 AM79 °FSunny.No wind52%30.16 "Hg10 mi
10:51 AM78 °FSunny.No wind54%30.16 "Hg10 mi
9:51 AM74 °FSunny.5 mph67%30.17 "Hg10 mi
8:51 AM69 °FSunny.6 mph76%30.18 "Hg10 mi
7:51 AM64 °FSunny.3 mph81%30.18 "Hg10 mi
6:51 AM62 °FClear.No wind83%30.19 "Hg10 mi
5:51 AM62 °FClear.5 mph80%30.18 "Hg10 mi
4:51 AM61 °FClear.5 mph83%30.18 "Hg10 mi
3:51 AM61 °FClear.5 mph83%30.19 "Hg10 mi
2:51 AM62 °FClear.3 mph83%30.18 "Hg10 mi
1:51 AM63 °FClear.3 mph81%30.19 "Hg10 mi
12:51 AM63 °FClear.5 mph84%30.19 "Hg10 mi
11:51 PM
Mon, Aug 29
65 °FClear.3 mph81%30.20 "Hg10 mi
10:51 PM65 °FClear.5 mph85%30.22 "Hg10 mi
9:51 PM68 °FClear.5 mph78%30.22 "Hg10 mi
8:51 PM70 °FSunny.3 mph73%30.21 "Hg10 mi
7:51 PM75 °FSunny.3 mph60%30.19 "Hg10 mi
6:51 PM77 °FSunny.6 mph54%30.19 "Hg10 mi
5:51 PM79 °FSunny.7 mph50%30.20 "Hg10 mi
4:51 PM80 °FSunny.7 mph41%30.21 "Hg10 mi
3:51 PM79 °FSunny.7 mph52%30.22 "Hg10 mi
Weather by CustomWeather, © 2016

See weather overviewHow to use our weather pages